Zurück zum Katalog

STARLINK-5497

AktivKommunikationVLEO
NORAD 55629·PAYLOAD·🇺🇸 United States

Gestartet Feb 17, 2023 von Vandenberg Space Force Base

Loading…

Nächste Überflüge (nächste 24 Stunden)

TLE

AktuellSource: CelesTrak SupGP

Epoche: Sep 14, 2026, 22:31 UTC

1 55629C 23021B   26257.93868056  .00036369  00000+0  30478-2 0  2579
2 55629  70.0002  87.4044 0002866 270.5014  71.8042 14.98313416    19

Verfolge STARLINK-5497 in Echtzeit mit AllMySat

Download on the App Store